Location: Niverville
(49.6028°N, 97.0419°W)
Time: 13:11:31
(UTC-06:00)

Amateur Radio Satellites - All Passes

Search period start: 11 February 2016 12:41
Search period end: 12 February 2016 12:41
Location: Niverville, 49.6028°N, 97.0419°W

Satellite Date Start Highest point End Downlink Frequencies (MHz)
Time Altitude Azimuth
CUSAT 1 11 Feb 12:41:46 12:48:00 80° 77° (ENE) 12:52:36 437.405
YUBILEINY 11 Feb 12:48:09 12:55:26 27° 58° (ENE) 13:02:38 435.215
AISAT 11 Feb 12:51:59 12:56:09 40° 292° (WNW) 13:00:15 437.250
UKube-1 11 Feb 12:55:24 12:59:29 42° 292° (WNW) 13:03:33 .
PCSat 11 Feb 12:56:37 13:01:24 31° 322° (NW) 13:06:13 145.827
SPROUT 11 Feb 13:01:31 13:05:49 89° 119° (ESE) 13:10:04 437.525
TISAT 1 11 Feb 13:04:09 13:08:03 37° 97° (E) 13:11:56 437.305
ITAMSAT 1 11 Feb 13:05:29 13:09:55 29° 61° (ENE) 13:14:21 435.822/435.867
CUBEBUG 1 11 Feb 13:06:51 13:10:50 35° 294° (WNW) 13:14:46 437.445
Cosmos 2491 11 Feb 13:07:14 13:09:23 11° 66° (ENE) 13:11:32 435.465 / 435.565
DX 1 11 Feb 13:10:47 13:14:30 27° 296° (WNW) 13:18:10 434.975-435.025
JAS-2 11 Feb 13:17:11 13:24:45 86° 254° (WSW) 13:31:34 435.910
AO-7 11 Feb 13:18:35 13:25:26 30° 48° (NE) 13:32:17 29.400- 29.500
Cosmos 2504 11 Feb 13:19:25 13:21:53 11° 38° (NE) 13:24:20 435.465 / 435.565
ESTCUBE 1 11 Feb 13:21:10 13:24:43 23° 299° (WNW) 13:28:16 437.505/2401.250
DANDE 11 Feb 13:28:53 13:36:13 78° 262° (W) 13:41:45 436.750
Oscar 19 11 Feb 13:31:31 13:36:30 47° 261° (W) 13:41:31 437.125/150
AO-85 11 Feb 13:31:54 13:36:01 21° 339° (NNW) 13:40:05 145.980
SO-50 11 Feb 13:35:39 13:40:26 60° 236° (SW) 13:45:04 436.795
SWISSCUBE 11 Feb 13:53:21 13:57:29 28° 94° (E) 14:01:36 437.505
RS-15 11 Feb 14:04:14 14:15:23 56° 326° (NNW) 14:27:12 29.354- 29.394
Gurwin Techsat 1B 11 Feb 14:16:30 14:21:38 49° 261° (W) 14:26:48 435.225
M-CUBED/EXP-1 PRIME 11 Feb 14:22:12 14:24:44 19° 59° (ENE) 14:27:13 437.505
CUSAT 1 11 Feb 14:25:41 14:29:03 16° 284° (WNW) 14:31:58 437.405
AUBIESAT-1 11 Feb 14:30:20 14:32:54 20° 59° (ENE) 14:35:25 437.475
ITUPSAT 1 11 Feb 14:30:47 14:35:32 53° 101° (E) 14:40:14 437.325
BEESAT 11 Feb 14:38:03 14:42:50 63° 102° (ESE) 14:47:36 436.000
SPROUT 11 Feb 14:39:11 14:41:10 13° 303° (WNW) 14:43:08 437.525
TISAT 1 11 Feb 14:40:08 14:43:36 25° 296° (WNW) 14:47:02 437.305
HORYU 2 11 Feb 14:42:56 14:46:09 20° 60° (ENE) 14:49:22 437.375
PCSat 11 Feb 14:43:52 14:46:37 14° 347° (NNW) 14:49:22 145.827
ITAMSAT 1 11 Feb 14:44:09 14:49:10 49° 260° (W) 14:54:15 435.822/435.867
YUBILEINY 11 Feb 14:44:32 14:53:27 86° 262° (W) 15:02:16 435.215
Cosmos 2491 11 Feb 14:55:42 15:04:01 53° 89° (E) 15:12:23 435.465 / 435.565
JAS-2 11 Feb 15:05:23 15:10:33 20° 272° (W) 15:15:25 435.910
AO-7 11 Feb 15:08:57 15:17:22 88° 252° (WSW) 15:25:48 29.400- 29.500
ISS 11 Feb 15:10:13 15:11:49 13° 137° (SE) 15:13:26 145.825
Cosmos 2504 11 Feb 15:10:18 15:18:27 40° 66° (ENE) 15:26:03 435.465 / 435.565
DANDE 11 Feb 15:13:49 15:17:33 15° 287° (WNW) 15:20:54 436.750
AO-85 11 Feb 15:15:12 15:18:32 16° 4° (N) 15:21:46 145.980
STARS 11 Feb 15:27:24 15:30:26 18° 91° (E) 15:33:28 437.465
SWISSCUBE 11 Feb 15:30:53 15:35:26 43° 293° (WNW) 15:39:58 437.505
KKS-1 11 Feb 15:48:30 15:52:50 49° 100° (E) 15:57:07 437.445
MOZHAYETS 4 11 Feb 15:55:29 15:59:26 27° 94° (E) 16:03:23
M-CUBED/EXP-1 PRIME 11 Feb 15:55:58 15:59:15 36° 254° (WSW) 16:02:25 437.505
AUBIESAT-1 11 Feb 16:04:05 16:07:22 35° 255° (WSW) 16:10:31 437.475
ITUPSAT 1 11 Feb 16:09:13 16:13:04 24° 299° (WNW) 16:16:54 437.325
O/OREOS (USA 219) 11 Feb 16:13:45 16:17:29 24° 48° (NE) 16:21:13 437.305
BEESAT 11 Feb 16:16:40 16:20:13 21° 301° (WNW) 16:23:45 436.000
HORYU 2 11 Feb 16:18:01 16:22:21 57° 259° (WSW) 16:26:44 437.375
RS-15 11 Feb 16:20:11 16:30:55 39° 359° (N) 16:42:06 29.354- 29.394
PCSat 11 Feb 16:29:37 16:32:26 14° 14° (NNE) 16:35:15 145.827
CUTE-I 11 Feb 16:36:07 16:40:30 27° 60° (ENE) 16:44:54 437.470
BRITE-PL 11 Feb 16:42:05 16:45:48 18° 57° (ENE) 16:49:26 437.365/2234.400
YUBILEINY 11 Feb 16:42:46 16:48:57 22° 285° (WNW) 16:55:06 435.215
ISS 11 Feb 16:44:33 16:47:44 59° 156° (SSE) 16:50:57 145.825
Cubesat XI-IV 11 Feb 16:50:01 16:54:44 33° 63° (ENE) 16:59:30 437.490
BEESAT 3 11 Feb 16:51:47 16:55:13 29° 118° (ESE) 16:58:41 437.485
LilacSat-2 11 Feb 16:52:06 16:54:56 20° 64° (ENE) 16:57:46 437.200
Cosmos 2491 11 Feb 16:52:56 17:01:06 43° 292° (WNW) 17:09:21 435.465 / 435.565
AO-85 11 Feb 16:56:19 17:00:51 27° 28° (NNE) 17:05:08 145.980
STARS 11 Feb 17:02:53 17:07:11 56° 290° (WNW) 17:11:27 437.465
Cosmos 2504 11 Feb 17:03:47 17:12:12 56° 270° (W) 17:20:03 435.465 / 435.565
AO-7 11 Feb 17:05:03 17:11:17 23° 271° (W) 17:17:34 29.400- 29.500
BEESAT 2 11 Feb 17:19:12 17:22:52 35° 120° (ESE) 17:26:34 435.950
HO-68 11 Feb 17:24:46 17:29:01 17° 43° (NE) 17:33:16 435.675
KKS-1 11 Feb 17:25:40 17:29:08 23° 298° (WNW) 17:32:35 437.445
MOZHAYETS 4 11 Feb 17:32:23 17:36:45 41° 292° (WNW) 17:41:06
GOMX 1 11 Feb 17:37:21 17:41:39 26° 63° (ENE) 17:45:46 467.674
O/OREOS (USA 219) 11 Feb 17:52:44 17:57:14 56° 248° (WSW) 18:01:44 437.305
AIST 2 11 Feb 17:55:05 17:55:52 10° 109° (ESE) 17:56:39 435.215
STRAND 1 11 Feb 18:10:40 18:11:32 10° 84° (E) 18:12:24 437.568
PCSat 11 Feb 18:12:44 18:17:36 32° 39° (NE) 18:22:27 145.827
GONETS M04 11 Feb 18:13:42 18:20:23 23° 55° (NE) 18:27:04
Cosmos 2499 11 Feb 18:14:53 18:17:24 11° 39° (NE) 18:19:53 435.465 / 435.565
CUTE-I 11 Feb 18:15:01 18:20:15 56° 259° (W) 18:25:32 437.470
BRITE-PL 11 Feb 18:17:56 18:23:38 89° 68° (ENE) 18:29:07 437.365/2234.400
CUBESAT XI-V 11 Feb 18:18:05 18:22:49 75° 103° (ESE) 18:27:30 437.345
CANX-2 11 Feb 18:19:24 18:21:40 14° 58° (ENE) 18:23:57 2200.000
ISS 11 Feb 18:21:01 18:24:14 60° 355° (N) 18:27:28 145.825
LilacSat-2 11 Feb 18:25:25 18:29:02 40° 262° (W) 18:32:39 437.200
BEESAT 3 11 Feb 18:29:05 18:32:52 41° 318° (NW) 18:36:41 437.485
Cubesat XI-IV 11 Feb 18:29:39 18:34:43 43° 262° (W) 18:39:50 437.490
RS-15 11 Feb 18:34:56 18:46:38 54° 32° (NNE) 18:58:39 29.354- 29.394
AO-85 11 Feb 18:36:47 18:42:06 90° 234° (SW) 18:46:58 145.980
DOVE 4 11 Feb 18:45:47 18:50:37 51° 71° (ENE) 18:55:11 437.250
COMPASS 1 11 Feb 18:54:16 18:56:51 16° 60° (ENE) 18:59:28 437.405
BEESAT 2 11 Feb 18:57:03 19:00:47 35° 320° (NW) 19:04:31 435.950
Cosmos 2491 11 Feb 18:58:12 19:01:00 12° 320° (NW) 19:03:50 435.465 / 435.565
Cosmos 2504 11 Feb 19:00:20 19:03:27 12° 293° (WNW) 19:06:31 435.465 / 435.565
CUTE 1.7 + AOD 2 11 Feb 19:07:47 19:11:35 34° 67° (ENE) 19:15:26 437.475
HO-68 11 Feb 19:08:21 19:15:22 60° 65° (ENE) 19:22:26 435.675
SEEDS 11 Feb 19:10:49 19:14:26 28° 65° (ENE) 19:18:04 437.485
Oscar 11 11 Feb 19:11:25 19:11:49 10° 54° (NE) 19:12:13 145.826/435.025
GOMX 1 11 Feb 19:14:13 19:19:28 55° 260° (W) 19:24:27 467.674
UWE-3 11 Feb 19:18:43 19:20:25 12° 57° (ENE) 19:22:08 435.000/436.395/437.385
AAUSAT CUBESAT 2 11 Feb 19:20:09 19:23:26 23° 64° (ENE) 19:26:44 437.432
CUBEBUG 2 11 Feb 19:21:03 19:23:48 17° 61° (ENE) 19:26:31 437.445
CINEMA 3 11 Feb 19:25:58 19:30:17 45° 70° (ENE) 19:34:26 145.822/145.860
AIST 2 11 Feb 19:29:28 19:33:37 76° 128° (SE) 19:37:49 435.215
STRAND 1 11 Feb 19:46:30 19:51:40 69° 102° (ESE) 19:56:50 437.568
CANX-2 11 Feb 19:52:45 19:56:57 79° 254° (WSW) 20:01:15 2200.000
PCSat 11 Feb 19:55:59 20:01:22 62° 240° (WSW) 20:06:43 145.827
CUBESAT XI-V 11 Feb 19:56:34 19:59:40 18° 302° (WNW) 20:02:44 437.345
ISS 11 Feb 19:57:37 20:00:52 77° 13° (NNE) 20:04:07 145.825
BRITE-PL 11 Feb 19:59:18 20:02:44 16° 273° (W) 20:06:09 437.365/2234.400
Cosmos 2499 11 Feb 20:05:35 20:13:35 42° 67° (ENE) 20:20:58 435.465 / 435.565
ZACube-1 11 Feb 20:06:12 20:09:33 24° 64° (ENE) 20:12:53 437.345
BEESAT 3 11 Feb 20:09:46 20:11:39 13° 340° (NNW) 20:13:33 437.485
GONETS M04 11 Feb 20:09:54 20:18:45 83° 79° (E) 20:27:37
FUNcube-1 11 Feb 20:13:59 20:17:29 27° 65° (ENE) 20:20:58 145.935
DELFI C3 11 Feb 20:18:07 20:21:12 22° 63° (ENE) 20:24:19 145.870
AO-85 11 Feb 20:18:43 20:21:49 16° 252° (WSW) 20:24:47 145.980
DOVE 4 11 Feb 20:24:33 20:28:33 24° 267° (W) 20:32:23 437.250
COMPASS 1 11 Feb 20:27:51 20:31:59 66° 258° (WSW) 20:36:10 437.405
PRISM 11 Feb 20:35:40 20:39:53 73° 104° (ESE) 20:44:01 437.425
BEESAT 2 11 Feb 20:38:08 20:39:49 12° 342° (NNW) 20:41:29 435.950
Oscar 11 11 Feb 20:42:52 20:47:08 67° 72° (ENE) 20:51:27 145.826/435.025
CUTE 1.7 + AOD 2 11 Feb 20:43:51 20:47:29 28° 266° (W) 20:51:10 437.475
SEEDS 11 Feb 20:46:17 20:50:05 33° 264° (W) 20:53:56 437.485
RS-15 11 Feb 20:47:53 20:59:52 71° 239° (WSW) 21:12:06 29.354- 29.394
UWE-3 11 Feb 20:52:03 20:56:17 90° 79° (E) 21:00:29 435.000/436.395/437.385
AAUSAT CUBESAT 2 11 Feb 20:54:48 20:58:44 42° 262° (W) 21:02:43 437.432
CUBEBUG 2 11 Feb 20:55:48 21:00:02 62° 258° (WSW) 21:04:13 437.445
HO-68 11 Feb 20:57:05 21:03:27 34° 265° (W) 21:09:55 435.675
CINEMA 3 11 Feb 21:04:02 21:07:38 23° 267° (W) 21:11:08 145.822/145.860
AIST 2 11 Feb 21:09:15 21:12:35 23° 328° (NNW) 21:15:56 435.215
ESTCUBE 1 11 Feb 21:13:46 21:15:41 13° 55° (NE) 21:17:37 437.505/2401.250
AIST 1 11 Feb 21:18:21 21:22:35 46° 75° (ENE) 21:26:45
STRAND 1 11 Feb 21:26:33 21:30:23 21° 302° (WNW) 21:34:13 437.568
ISS 11 Feb 21:34:14 21:37:08 30° 213° (SSW) 21:40:02 145.825
50 SAT 11 Feb 21:40:47 21:43:14 17° 62° (ENE) 21:45:43 437.505
ZACube-1 11 Feb 21:41:45 21:45:41 39° 262° (W) 21:49:37 437.345
HUMSAT D 11 Feb 21:41:52 21:45:54 68° 73° (ENE) 21:49:59 437.325/437.525
PCSat 11 Feb 21:42:57 21:43:41 10° 259° (W) 21:44:25 145.827
FUNcube-1 11 Feb 21:49:50 21:53:40 34° 263° (W) 21:57:29 145.935
DELFI C3 11 Feb 21:52:09 21:55:55 41° 262° (W) 21:59:44 145.870
Cosmos 2499 11 Feb 21:58:51 22:06:59 53° 271° (W) 22:14:29 435.465 / 435.565
VELOX 1 11 Feb 22:00:33 22:04:18 27° 64° (ENE) 22:08:04 145.980
UNISAT 6 11 Feb 22:05:30 22:08:48 21° 92° (E) 22:12:07 437.425
GONETS M04 11 Feb 22:07:48 22:14:35 26° 282° (WNW) 22:21:25
PRISM 11 Feb 22:12:15 22:14:42 15° 302° (WNW) 22:17:08 437.425
AISAT 11 Feb 22:17:08 22:21:17 39° 67° (ENE) 22:25:27 437.250
UKube-1 11 Feb 22:18:13 22:22:10 35° 66° (ENE) 22:26:08 .
Oscar 11 11 Feb 22:21:16 22:23:45 15° 272° (W) 22:26:13 145.826/435.025
SPROUT 11 Feb 22:25:20 22:27:59 16° 59° (ENE) 22:30:38 437.525
CUBEBUG 1 11 Feb 22:30:29 22:34:39 42° 68° (ENE) 22:38:50 437.445
UWE-3 11 Feb 22:32:43 22:33:24 10° 274° (W) 22:34:07 435.000/436.395/437.385
DX 1 11 Feb 22:33:43 22:38:00 57° 71° (ENE) 22:42:20 434.975-435.025
QB50P1 11 Feb 22:36:59 22:38:02 11° 86° (E) 22:39:04 145.935-145.965
ESTCUBE 1 11 Feb 22:47:13 22:51:45 78° 74° (ENE) 22:56:20 437.505/2401.250
ANTELSAT 11 Feb 22:49:51 22:54:08 54° 101° (E) 22:58:27 437.575/2403.000
AIST 2 11 Feb 22:51:43 22:52:35 11° 351° (N) 22:53:28 435.215
TIGRISAT 11 Feb 22:55:58 23:00:15 59° 101° (E) 23:04:36 435.000
AIST 1 11 Feb 22:56:42 22:59:52 20° 274° (W) 23:03:00
RS-15 11 Feb 23:02:02 23:10:10 21° 263° (W) 23:18:23 29.354- 29.394
50 SAT 11 Feb 23:13:21 23:16:56 48° 260° (W) 23:20:35 437.505
BUGSAT 1 11 Feb 23:19:35 23:21:50 14° 89° (E) 23:24:04 437.445
HUMSAT D 11 Feb 23:20:02 23:22:03 13° 272° (W) 23:24:04 437.325/437.525
BEESAT 3 11 Feb 23:27:49 23:30:32 17° 28° (NNE) 23:33:14 437.485
POLYITAN 1 11 Feb 23:28:15 23:32:09 35° 97° (E) 23:36:00 437.675
QB50P2 11 Feb 23:28:46 23:32:42 36° 97° (E) 23:36:36 145.880/145.840
VELOX 1 11 Feb 23:36:26 23:40:38 40° 262° (W) 23:44:52 145.980
UNISAT 6 11 Feb 23:41:36 23:45:47 48° 290° (WNW) 23:50:02 437.425
AISAT 11 Feb 23:54:05 23:57:53 27° 266° (W) 00:01:42 437.250
UKube-1 11 Feb 23:54:32 23:58:17 28° 265° (W) 00:02:04 .
Cosmos 2499 11 Feb 23:55:56 23:57:53 11° 294° (WNW) 23:59:48 435.465 / 435.565
BEESAT 2 11 Feb 23:55:58 23:58:56 19° 30° (NNE) 00:01:54 435.950
POPSAT HIP 1 11 Feb 23:57:47 00:02:00 69° 102° (ESE) 00:06:11 437.405
SPROUT 11 Feb 23:59:12 00:03:29 70° 258° (WSW) 00:07:47 437.525
TISAT 1 11 Feb 23:59:48 00:03:53 50° 70° (ENE) 00:07:58 437.305
NANOSAT C BR1 12 Feb 00:01:04 00:05:17 73° 103° (ESE) 00:09:28 145.865
DUCHIFAT 1 12 Feb 00:01:29 00:05:41 70° 102° (ESE) 00:09:51 145.980
ITUPSAT 1 12 Feb 00:06:16 00:09:14 17° 56° (NE) 00:12:13 437.325
CUBEBUG 1 12 Feb 00:07:28 00:11:07 25° 267° (W) 00:14:47 437.445
CUSAT 1 12 Feb 00:08:13 00:13:12 18° 78° (ENE) 00:18:03 437.405
QB50P1 12 Feb 00:10:14 00:14:28 88° 286° (WNW) 00:18:40 145.935-145.965
DX 1 12 Feb 00:11:33 00:14:34 18° 269° (W) 00:17:36 434.975-435.025
BEESAT 12 Feb 00:12:50 00:16:08 19° 58° (ENE) 00:19:25 436.000
ESTCUBE 1 12 Feb 00:26:46 00:29:09 14° 272° (W) 00:31:33 437.505/2401.250
ANTELSAT 12 Feb 00:27:21 00:30:32 20° 299° (WNW) 00:33:46 437.575/2403.000
AIST 2 12 Feb 00:31:10 00:32:56 12° 16° (NNE) 00:34:40 435.215
TIGRISAT 12 Feb 00:33:35 00:36:35 19° 299° (WNW) 00:39:38 435.000
BUGSAT 1 12 Feb 00:53:38 00:57:39 61° 288° (WNW) 01:01:37 437.445
DANDE 12 Feb 00:58:37 01:04:56 26° 81° (E) 01:11:25 436.750
Cosmos 2491 12 Feb 01:00:14 01:08:02 34° 63° (ENE) 01:15:48 435.465 / 435.565
SWISSCUBE 12 Feb 01:03:47 01:08:24 51° 69° (ENE) 01:13:04 437.505
POLYITAN 1 12 Feb 01:04:18 01:07:52 27° 295° (WNW) 01:11:25 437.675
QB50P2 12 Feb 01:04:52 01:08:23 26° 296° (WNW) 01:11:55 145.880/145.840
BEESAT 3 12 Feb 01:04:59 01:08:58 74° 48° (NE) 01:12:55 437.485
KKS-1 12 Feb 01:17:22 01:19:07 12° 54° (NE) 01:20:51 437.445
BEESAT 2 12 Feb 01:33:22 01:37:24 90° 299° (WNW) 01:41:23 435.950
POPSAT HIP 1 12 Feb 01:34:46 01:37:20 16° 301° (WNW) 01:39:52 437.405
TISAT 1 12 Feb 01:36:47 01:39:50 19° 268° (W) 01:42:54 437.305
PHONESAT 2.4 12 Feb 01:38:03 01:39:58 15° 169° (S) 01:41:53 2401.200-2431.200
NANOSAT C BR1 12 Feb 01:38:06 01:40:32 15° 301° (WNW) 01:42:57 145.865
Oscar 19 12 Feb 01:38:23 01:43:19 44° 98° (E) 01:48:12 437.125/150
DUCHIFAT 1 12 Feb 01:38:26 01:40:55 15° 301° (WNW) 01:43:23 145.980
ITUPSAT 1 12 Feb 01:41:41 01:46:28 83° 254° (WSW) 01:51:19 437.325
CUSAT 1 12 Feb 01:46:17 01:54:21 70° 97° (E) 02:02:04 437.405
QB50P1 12 Feb 01:47:50 01:49:37 12° 304° (WNW) 01:51:22 145.935-145.965
BEESAT 12 Feb 01:48:40 01:53:25 71° 257° (WSW) 01:58:13 436.000
YUBILEINY 12 Feb 01:56:42 02:03:17 24° 77° (ENE) 02:09:52 435.215
JAS-2 12 Feb 02:07:59 02:13:38 56° 100° (E) 02:18:48 435.910
AIST 2 12 Feb 02:08:51 02:12:39 33° 39° (NE) 02:16:25 435.215
Gurwin Techsat 1B 12 Feb 02:27:57 02:33:08 48° 99° (E) 02:38:16 435.225
STARS 12 Feb 02:27:57 02:31:43 28° 64° (ENE) 02:35:29 437.465
DANDE 12 Feb 02:38:48 02:46:58 90° 165° (SSE) 02:55:27 436.750
SWISSCUBE 12 Feb 02:42:44 02:46:30 23° 268° (W) 02:50:18 437.505
BEESAT 3 12 Feb 02:43:58 02:46:13 15° 248° (WSW) 02:48:27 437.485
KKS-1 12 Feb 02:50:29 02:54:57 77° 73° (ENE) 02:59:25 437.445
ITAMSAT 1 12 Feb 02:52:19 02:57:18 43° 98° (E) 03:02:16 435.822/435.867
Cosmos 2491 12 Feb 02:56:56 03:05:36 68° 266° (W) 03:14:15 435.465 / 435.565
MOZHAYETS 4 12 Feb 03:01:21 03:05:38 41° 68° (ENE) 03:09:58
AO-7 12 Feb 03:06:29 03:12:55 24° 90° (E) 03:19:17 29.400- 29.500
BEESAT 2 12 Feb 03:13:06 03:14:40 12° 250° (WSW) 03:16:12 435.950
PHONESAT 2.4 12 Feb 03:14:23 03:16:31 16° 186° (S) 03:18:39 2401.200-2431.200
Oscar 19 12 Feb 03:18:02 03:22:30 31° 298° (WNW) 03:26:57 437.125/150
ITUPSAT 1 12 Feb 03:23:22 03:25:06 12° 274° (W) 03:26:49 437.325
CUSAT 1 12 Feb 03:29:55 03:37:11 35° 296° (WNW) 03:44:04 437.405
AIST 2 12 Feb 03:47:21 03:51:15 40° 239° (WSW) 03:55:06 435.215
CUBESAT XI-V 12 Feb 03:50:02 03:53:13 18° 58° (ENE) 03:56:24 437.345
YUBILEINY 12 Feb 03:50:08 03:58:57 87° 279° (W) 04:07:53 435.215
JAS-2 12 Feb 03:53:40 03:58:22 26° 303° (WNW) 04:02:45 435.910
Cosmos 2504 12 Feb 03:54:14 04:01:22 30° 80° (E) 04:08:39 435.465 / 435.565
SO-50 12 Feb 03:55:08 03:58:19 17° 111° (ESE) 04:01:31 436.795
STARS 12 Feb 04:03:55 04:08:00 37° 263° (W) 04:12:05 437.465
HORYU 2 12 Feb 04:05:11 04:08:28 20° 92° (E) 04:11:45 437.375
Gurwin Techsat 1B 12 Feb 04:08:19 04:12:53 30° 298° (WNW) 04:17:27 435.225
DANDE 12 Feb 04:24:07 04:31:02 28° 302° (WNW) 04:38:00 436.750
KKS-1 12 Feb 04:29:47 04:32:05 14° 272° (W) 04:34:23 437.445
ITAMSAT 1 12 Feb 04:32:02 04:36:41 33° 297° (WNW) 04:41:18 435.822/435.867
MOZHAYETS 4 12 Feb 04:39:07 04:42:58 26° 267° (W) 04:46:51
Cosmos 2491 12 Feb 04:56:00 05:00:42 16° 289° (WNW) 05:05:25 435.465 / 435.565
AO-7 12 Feb 04:58:22 05:06:46 89° 291° (WNW) 05:15:05 29.400- 29.500
M-CUBED/EXP-1 PRIME 12 Feb 05:05:04 05:08:27 66° 109° (ESE) 05:11:59 437.505
AUBIESAT-1 12 Feb 05:12:35 05:16:01 67° 109° (ESE) 05:19:37 437.475
CUBESAT XI-V 12 Feb 05:25:24 05:30:06 72° 258° (WSW) 05:34:51 437.345
STRAND 1 12 Feb 05:28:55 05:33:05 26° 60° (ENE) 05:37:16 437.568
SO-50 12 Feb 05:33:15 05:38:13 86° 312° (NW) 05:43:12 436.795
HORYU 2 12 Feb 05:41:00 05:45:21 53° 290° (WNW) 05:49:40 437.375
Cosmos 2504 12 Feb 05:45:13 05:53:56 77° 282° (WNW) 06:02:55 435.465 / 435.565
YUBILEINY 12 Feb 05:50:18 05:57:11 25° 304° (NW) 06:04:09 435.215
LilacSat-2 12 Feb 05:55:21 05:57:44 16° 91° (E) 06:00:06 437.200
PRISM 12 Feb 05:56:34 05:58:33 13° 56° (ENE) 06:00:33 437.425
BRITE-PL 12 Feb 06:19:55 06:23:25 20° 89° (E) 06:26:44 437.365/2234.400
CUTE-I 12 Feb 06:27:30 06:32:37 42° 98° (E) 06:37:42 437.470
M-CUBED/EXP-1 PRIME 12 Feb 06:41:13 06:42:45 13° 305° (NW) 06:44:18 437.505
Cubesat XI-IV 12 Feb 06:41:57 06:47:15 55° 100° (E) 06:52:32 437.490
AUBIESAT-1 12 Feb 06:48:39 06:50:15 13° 305° (NW) 06:51:53 437.475
AO-7 12 Feb 06:51:55 06:58:37 28° 313° (NW) 07:05:17 29.400- 29.500
STRAND 1 12 Feb 07:06:56 07:11:57 55° 259° (W) 07:17:02 437.568
GOMX 1 12 Feb 07:12:19 07:16:16 31° 94° (E) 07:20:02 467.674
SO-50 12 Feb 07:15:20 07:19:24 24° 332° (NNW) 07:23:27 436.795
GONETS M04 12 Feb 07:23:23 07:29:07 20° 74° (ENE) 07:34:50
LilacSat-2 12 Feb 07:28:41 07:32:21 49° 288° (WNW) 07:36:01 437.200
PRISM 12 Feb 07:29:05 07:33:16 87° 260° (W) 07:37:30 437.425
CANX-2 12 Feb 07:34:49 07:37:07 14° 88° (E) 07:39:24 2200.000
Cosmos 2504 12 Feb 07:42:28 07:49:00 22° 306° (NW) 07:55:39 435.465 / 435.565
BRITE-PL 12 Feb 07:57:40 08:02:22 53° 290° (WNW) 08:06:41 437.365/2234.400
COMPASS 1 12 Feb 08:07:34 08:10:07 15° 89° (E) 08:12:39 437.405
CUTE-I 12 Feb 08:07:46 08:12:35 34° 297° (WNW) 08:17:23 437.470
O/OREOS (USA 219) 12 Feb 08:08:58 08:13:27 72° 114° (ESE) 08:17:59 437.305
DOVE 4 12 Feb 08:18:01 08:22:17 72° 102° (ESE) 08:26:25 437.250
HO-68 12 Feb 08:18:47 08:25:32 41° 97° (E) 08:32:14 435.675
ANTELSAT 12 Feb 08:19:41 08:21:08 12° 55° (NE) 08:22:36 437.575/2403.000
Cubesat XI-IV 12 Feb 08:22:34 08:27:03 28° 300° (WNW) 08:31:32 437.490
CUTE 1.7 + AOD 2 12 Feb 08:23:45 08:27:45 36° 97° (E) 08:31:44 437.475
TIGRISAT 12 Feb 08:25:16 08:27:03 12° 56° (NE) 08:28:50 435.000
SEEDS 12 Feb 08:25:36 08:29:23 30° 95° (E) 08:33:07 437.485
AAUSAT CUBESAT 2 12 Feb 08:33:05 08:36:27 23° 93° (E) 08:39:47 437.432
UWE-3 12 Feb 08:38:43 08:40:41 13° 88° (E) 08:42:40 435.000/436.395/437.385
CUBEBUG 2 12 Feb 08:42:44 08:45:45 19° 91° (E) 08:48:48 437.445
AO-7 12 Feb 08:47:12 08:48:37 11° 339° (NNW) 08:50:02 29.400- 29.500
Cosmos 2499 12 Feb 08:47:24 08:54:41 30° 80° (E) 09:02:00 435.465 / 435.565
GOMX 1 12 Feb 08:50:26 08:54:24 31° 295° (WNW) 08:58:09 467.674
CINEMA 3 12 Feb 08:53:00 08:57:07 59° 101° (E) 09:01:15 145.822/145.860
AO-85 12 Feb 08:57:28 09:00:01 13° 106° (ESE) 09:02:34 145.980
SO-50 12 Feb 08:58:56 09:01:36 14° 356° (N) 09:04:14 436.795
UNISAT 6 12 Feb 09:08:32 09:12:17 30° 66° (ENE) 09:16:02 437.425
PRISM 12 Feb 09:08:51 09:09:17 10° 274° (W) 09:09:42 437.425
CANX-2 12 Feb 09:09:11 09:13:29 71° 286° (WNW) 09:17:46 2200.000
RS-15 12 Feb 09:14:49 09:17:38 11° 89° (E) 09:20:27 29.354- 29.394
GONETS M04 12 Feb 09:15:50 09:24:31 81° 97° (E) 09:33:17
POPSAT HIP 1 12 Feb 09:21:29 09:23:20 13° 56° (ENE) 09:25:10 437.405
NANOSAT C BR1 12 Feb 09:24:18 09:26:17 13° 57° (ENE) 09:28:15 145.865
DUCHIFAT 1 12 Feb 09:24:40 09:26:30 13° 57° (ENE) 09:28:21 145.980
ZACube-1 12 Feb 09:25:30 09:29:06 27° 94° (E) 09:32:45 437.345
DELFI C3 12 Feb 09:26:17 09:29:15 19° 92° (E) 09:32:12 145.870
QB50P1 12 Feb 09:32:58 09:35:34 16° 59° (ENE) 09:38:11 145.935-145.965
FUNcube-1 12 Feb 09:33:03 09:36:47 30° 95° (E) 09:40:35 145.935
COMPASS 1 12 Feb 09:41:55 09:46:08 63° 287° (WNW) 09:50:18 437.405
O/OREOS (USA 219) 12 Feb 09:50:05 09:53:23 20° 315° (NW) 09:56:43 437.305
AIST 1 12 Feb 09:52:48 09:56:14 23° 87° (E) 09:59:41
ANTELSAT 12 Feb 09:52:53 09:57:10 80° 73° (ENE) 10:01:27 437.575/2403.000
DOVE 4 12 Feb 09:57:04 09:59:28 15° 302° (WNW) 10:01:50 437.250
TIGRISAT 12 Feb 09:58:49 10:03:07 87° 70° (ENE) 10:07:24 435.000
CUTE 1.7 + AOD 2 12 Feb 09:59:52 10:03:29 27° 295° (WNW) 10:07:07 437.475
SEEDS 12 Feb 10:01:17 10:05:06 32° 293° (WNW) 10:08:54 437.485
Oscar 11 12 Feb 10:01:39 10:06:01 76° 103° (ESE) 10:10:23 145.826/435.025
HO-68 12 Feb 10:06:30 10:13:24 50° 298° (WNW) 10:20:16 435.675
AAUSAT CUBESAT 2 12 Feb 10:08:09 10:12:08 41° 291° (WNW) 10:16:06 437.432
BUGSAT 1 12 Feb 10:13:15 10:16:18 20° 62° (ENE) 10:19:21 437.445
UWE-3 12 Feb 10:13:28 10:17:40 75° 286° (WNW) 10:21:57 435.000/436.395/437.385
CUBEBUG 2 12 Feb 10:18:38 10:22:41 49° 289° (WNW) 10:26:48 437.445
POLYITAN 1 12 Feb 10:24:54 10:28:57 47° 70° (ENE) 10:33:01 437.675
QB50P2 12 Feb 10:25:23 10:29:27 48° 70° (ENE) 10:33:33 145.880/145.840
CINEMA 3 12 Feb 10:31:11 10:33:53 17° 300° (WNW) 10:36:36 145.822/145.860
AO-85 12 Feb 10:34:14 10:39:37 70° 125° (SE) 10:45:07 145.980
ESTCUBE 1 12 Feb 10:37:17 10:39:11 12° 87° (E) 10:41:06 437.505/2401.250
Cosmos 2499 12 Feb 10:38:14 10:47:04 75° 282° (WNW) 10:55:59 435.465 / 435.565
CUSAT 1 12 Feb 10:39:35 10:42:05 13° 45° (NE) 10:44:22 437.405
SO-50 12 Feb 10:40:29 10:43:58 19° 21° (NNE) 10:47:23 436.795
PCSat 12 Feb 10:41:37 10:46:50 50° 117° (ESE) 10:52:05 145.827
50 SAT 12 Feb 10:42:02 10:43:37 12° 89° (E) 10:45:10 437.505
JAS-2 12 Feb 10:43:40 10:46:13 12° 46° (NE) 10:48:42 435.910
UNISAT 6 12 Feb 10:45:09 10:49:00 32° 264° (W) 10:52:51 437.425
CANX-2 12 Feb 10:47:41 10:48:34 11° 305° (NW) 10:49:28 2200.000
POPSAT HIP 1 12 Feb 10:54:15 10:58:29 89° 70° (ENE) 11:02:44 437.405
HUMSAT D 12 Feb 10:56:24 11:00:35 72° 103° (ESE) 11:04:48 437.325/437.525
NANOSAT C BR1 12 Feb 10:57:12 11:01:26 87° 263° (W) 11:05:40 145.865
DUCHIFAT 1 12 Feb 10:57:22 11:01:35 90° 140° (SE) 11:05:50 145.980
DELFI C3 12 Feb 11:00:31 11:04:24 45° 290° (WNW) 11:08:16 145.870
ZACube-1 12 Feb 11:01:38 11:05:29 35° 292° (WNW) 11:09:23 437.345
QB50P1 12 Feb 11:06:40 11:10:53 68° 258° (WSW) 11:15:07 145.935-145.965
FUNcube-1 12 Feb 11:09:20 11:13:03 31° 293° (WNW) 11:16:50 145.935
GONETS M04 12 Feb 11:15:11 11:22:25 28° 301° (WNW) 11:29:45
RS-15 12 Feb 11:16:10 11:26:45 52° 113° (ESE) 11:37:53 29.354- 29.394
VELOX 1 12 Feb 11:22:16 11:26:05 28° 95° (E) 11:29:51 145.980
Oscar 19 12 Feb 11:22:32 11:25:58 18° 56° (NE) 11:29:22 437.125/150
AIST 1 12 Feb 11:29:24 11:33:36 42° 286° (WNW) 11:37:49
ANTELSAT 12 Feb 11:32:45 11:34:29 12° 273° (W) 11:36:13 437.575/2403.000
DANDE 12 Feb 11:34:13 11:39:48 23° 53° (NE) 11:44:27 436.750
UKube-1 12 Feb 11:36:46 11:40:43 34° 97° (E) 11:44:40 .
Oscar 11 12 Feb 11:39:04 11:41:37 15° 302° (WNW) 11:44:10 145.826/435.025
AISAT 12 Feb 11:39:13 11:43:25 41° 98° (E) 11:47:35 437.250
TIGRISAT 12 Feb 11:39:14 11:40:27 11° 273° (W) 11:41:40 435.000
SPROUT 12 Feb 11:42:13 11:44:44 15° 89° (E) 11:47:13 437.525
BUGSAT 1 12 Feb 11:47:20 11:51:24 50° 260° (W) 11:55:28 437.445
CUBEBUG 1 12 Feb 11:50:47 11:55:00 45° 99° (E) 11:59:09 437.445
UWE-3 12 Feb 11:52:32 11:53:26 11° 305° (NW) 11:54:19 435.000/436.395/437.385
DX 1 12 Feb 11:53:35 11:57:55 58° 101° (ESE) 12:02:11 434.975-435.025
HO-68 12 Feb 11:55:58 11:59:33 15° 320° (NW) 12:03:07 435.675
YUBILEINY 12 Feb 11:59:18 12:04:41 17° 48° (NE) 12:10:02 435.215
POLYITAN 1 12 Feb 12:01:52 12:05:02 20° 268° (W) 12:08:12 437.675
QB50P2 12 Feb 12:02:27 12:05:33 20° 268° (W) 12:08:40 145.880/145.840
ESTCUBE 1 12 Feb 12:12:05 12:16:40 87° 286° (WNW) 12:21:13 437.505/2401.250
50 SAT 12 Feb 12:14:16 12:18:04 67° 286° (WNW) 12:21:51 437.505
Gurwin Techsat 1B 12 Feb 12:15:28 12:19:22 21° 57° (ENE) 12:23:15 435.225
AO-85 12 Feb 12:15:40 12:20:38 33° 326° (NW) 12:25:34 145.980
CUSAT 1 12 Feb 12:20:09 12:26:11 62° 73° (ENE) 12:30:40 437.405
SO-50 12 Feb 12:20:43 12:25:32 54° 43° (NE) 12:30:10 436.795
AO-7 12 Feb 12:21:58 12:26:47 17° 35° (NE) 12:31:37 29.400- 29.500
JAS-2 12 Feb 12:22:56 12:29:56 47° 66° (ENE) 12:36:15 435.910
PCSat 12 Feb 12:25:24 12:30:26 37° 319° (NW) 12:35:28 145.827
HUMSAT D 12 Feb 12:33:19 12:35:45 15° 301° (WNW) 12:38:11 437.325/437.525
POPSAT HIP 1 12 Feb 12:33:52 12:34:55 11° 273° (W) 12:35:59 437.405
DUCHIFAT 1 12 Feb 12:37:03 12:37:57 11° 274° (W) 12:38:51 145.980
NANOSAT C BR1 12 Feb 12:37:21 12:37:51 10° 274° (W) 12:38:20 145.865
